Flag for U.S.A. Weather past 2 weeks in Bristol, Tennessee, U.S.A.

Now
54 °F

Clear.


Feels Like: 54 °F
Forecast: 53 / 77 °F
Wind: No wind

Location: Abingdon-Southwest Abingdon

Current Time: Jul 30, 2014 at 3:44:34 AM

Latest Report: Jul 30, 2014 at 3:15 AM


Visibility: 10 mi

Pressure: 30.11 "Hg

Humidity: 95%

Dew point: 52 °F

Location of BristolLocation

Historic Weather in Bristol — Graph

°F

Bristol temperature yesterday

Maximum temperature yesterday: 74 °F (at 4:35 PM)
Minimum temperature yesterday: 58 °F (at 11:55 PM)
Average temperature yesterday: 66 °F

Past Weeks' High & Low Weather Summary

 TemperatureHumidityPressure
High86 °F (Jul 21, 2:55 PM)100% (Jul 24, 4:15 AM)30.25 "Hg (Jul 24, 4:15 AM)
Low54 °F (Jul 30, 2:15 AM)41% (Jul 17, 6:55 PM)29.89 "Hg (Jul 15, 3:15 PM)
Average70 °F79%30.08 "Hg
* Reported Jul 15 2:15 AM — Jul 30 2:35 AM, Bristol, Weather by CustomWeather, © 2014

Note: Actual official high and low records may vary slightly from our data, if they occured in-between our weather recording intervals... More about our weather records

Advertising

Bristol weather history for previous 24 hours

 ConditionsComfort  
Time TempWeatherWind HumidityBarometerVisibility
2:35 AM
Jul 30
54 °FClear.No wind92%30.11 "Hg10 mi
2:15 AM54 °FClear.No wind94%30.11 "Hg10 mi
1:55 AM55 °FClear.No wind91%30.12 "Hg10 mi
1:35 AM55 °FClear.No wind91%30.12 "Hg10 mi
1:15 AM55 °FClear.No wind91%30.12 "Hg10 mi
12:55 AM55 °FClear.No wind91%30.11 "Hg10 mi
12:35 AM57 °FClear.No wind86%30.11 "Hg10 mi
12:15 AM57 °FClear.No wind85%30.12 "Hg10 mi
11:55 PM
Jul 29
58 °FClear.No wind86%30.11 "Hg10 mi
11:35 PM59 °FPassing clouds.No wind80%30.12 "Hg10 mi
11:15 PM59 °FOvercast.No wind81%30.12 "Hg10 mi
10:55 PM60 °FPassing clouds.No wind80%30.12 "Hg10 mi
10:35 PM61 °FOvercast.No wind78%30.11 "Hg10 mi
10:15 PM61 °FOvercast.No wind74%30.11 "Hg10 mi
9:55 PM62 °FOvercast.No wind67%30.11 "Hg10 mi
9:15 PM64 °FSunny.No wind62%30.09 "Hg10 mi
8:55 PM65 °FSunny.3 mph60%30.09 "Hg10 mi
8:35 PM65 °FSunny.5 mph59%30.08 "Hg10 mi
7:55 PM67 °FSunny.9 mph57%30.08 "Hg10 mi
7:35 PM68 °FScattered clouds.7 mph56%30.07 "Hg10 mi
7:15 PM69 °FScattered clouds.9 mph56%30.06 "Hg10 mi
6:55 PM70 °FScattered clouds.7 mph55%30.06 "Hg10 mi
6:35 PM70 °FScattered clouds.12 mph54%30.06 "Hg10 mi
6:15 PM72 °FScattered clouds.9 mph56%30.05 "Hg10 mi
5:55 PM73 °FScattered clouds.8 mph53%30.04 "Hg10 mi
5:35 PM73 °FScattered clouds.7 mph52%30.04 "Hg10 mi
5:15 PM73 °FPartly sunny.10 mph53%30.03 "Hg10 mi
4:55 PM74 °FScattered clouds.9 mph46%30.03 "Hg10 mi
4:35 PM74 °FScattered clouds.8 mph44%30.03 "Hg10 mi
4:15 PM74 °FScattered clouds.5 mph49%30.02 "Hg10 mi
3:55 PM74 °FScattered clouds.5 mph48%30.02 "Hg10 mi
3:35 PM73 °FBroken clouds.8 mph47%30.02 "Hg10 mi
3:15 PM74 °FScattered clouds.9 mph45%30.03 "Hg10 mi
2:55 PM74 °FBroken clouds.5 mph49%30.03 "Hg10 mi
2:35 PM72 °FScattered clouds.7 mph52%30.04 "Hg10 mi
2:15 PM73 °FScattered clouds.8 mph47%30.04 "Hg10 mi
1:55 PM74 °FScattered clouds.10 mph48%30.04 "Hg10 mi
1:35 PM73 °FScattered clouds.6 mph51%30.05 "Hg10 mi
1:15 PM73 °FScattered clouds.7 mph50%30.05 "Hg10 mi
12:55 PM72 °FScattered clouds.5 mph50%30.05 "Hg10 mi
12:35 PM72 °FSunny.6 mph50%30.06 "Hg10 mi
12:15 PM69 °FScattered clouds.5 mph55%30.06 "Hg10 mi
11:55 AM69 °FScattered clouds.6 mph55%30.06 "Hg10 mi
11:35 AM70 °FScattered clouds.5 mph51%30.06 "Hg10 mi
11:15 AM68 °FPartly sunny.6 mph63%30.06 "Hg10 mi
10:55 AM69 °FBroken clouds.No wind59%30.05 "Hg10 mi
10:35 AM68 °FPartly sunny.No wind58%30.05 "Hg10 mi
10:15 AM68 °FScattered clouds.5 mph63%30.05 "Hg10 mi
9:55 AM68 °FSunny.No wind64%30.05 "Hg10 mi
9:35 AM66 °FSunny.No wind66%30.05 "Hg10 mi
9:15 AM65 °FSunny.5 mph77%30.05 "Hg10 mi
8:55 AM64 °FSunny.6 mph81%30.05 "Hg10 mi
8:35 AM64 °FSunny.3 mph83%30.05 "Hg10 mi
8:15 AM63 °FScattered clouds.No wind87%30.04 "Hg7 mi
7:55 AM61 °FBroken clouds.3 mph91%30.04 "Hg7 mi
7:35 AM61 °FPartly sunny.No wind93%30.03 "Hg10 mi
7:15 AM60 °FPassing clouds.3 mph95%30.03 "Hg7 mi
6:55 AM60 °FPartly cloudy.3 mph91%30.02 "Hg10 mi
6:35 AM61 °FOvercast.No wind92%30.02 "Hg10 mi
6:15 AM61 °FOvercast.3 mph92%30.01 "Hg10 mi
5:55 AM60 °FPassing clouds.3 mph94%30.01 "Hg10 mi
5:35 AM60 °FPartly cloudy.No wind95%30.00 "Hg10 mi
5:15 AM60 °FMostly cloudy.5 mph94%29.99 "Hg10 mi
4:55 AM60 °FOvercast.No wind93%29.99 "Hg10 mi
4:35 AM61 °FOvercast.No wind92%30.00 "Hg10 mi
4:15 AM60 °FOvercast.No wind93%30.00 "Hg10 mi
3:55 AM60 °FPassing clouds.No wind91%30.00 "Hg10 mi
3:35 AM61 °FPassing clouds.No wind89%30.00 "Hg10 mi
3:15 AM61 °FOvercast.No wind92%30.01 "Hg10 mi
Weather by CustomWeather, © 2014

See weather overviewHow to use our weather pages